Location: Asheville, NC
(35.6000°N, 82.5500°W)
Time: 18:42:51
(UTC-04:00)

Vanguard 3 - Pass Details

Date: 13 February 2018
Orbit: 508 x 3264 km, 33.4° (Epoch: 20 May)

Event Time Altitude Azimuth Distance (km) Brightness Sun altitude
Rises 19:20:13 0° 259° (W) 2,604 11.7 -14.8°
Reaches altitude 10° 19:22:11 10° 256° (WSW) 1,776 10.3 -15.2°
Maximum altitude 19:25:59 66° 174° (S) 689 6.7 -16.0°
Enters shadow 19:28:37 27° 99° (E) 1,393 7.8 -16.5°
Drops below altitude 10° 19:31:26 10° 93° (E) 2,522 - -17.1°
Sets 19:34:43 0° 91° (E) 3,845 - -17.7°
